CW2972 Weather Reports


time (UTC)temp
F
wind
direction
speed
knots
gust
knots
rain 1hr
in
rain 24hr
in
rain mn
in
humidity
%
barometer
mb
20240222115005 57 205 1.7 4.3 0.00 0.00 0.00 75 1010.4
20240222114805 57 205 1.7 5.2 0.00 0.00 0.00 75 1010.4
20240222114605 57 208 1.7 5.2 0.00 0.00 0.00 75 1010.5
20240222114404 57 198 1.7 5.2 0.00 0.00 0.00 75 1010.4
20240222114205 57 186 1.7 5.2 0.00 0.00 0.00 75 1010.5
20240222114004 57 194 1.7 5.2 0.00 0.00 0.00 75 1010.5
20240222113804 57 196 1.7 4.3 0.00 0.00 0.00 75 1010.5
20240222113604 57 194 1.7 4.3 0.00 0.00 0.00 75 1010.6
20240222113425 57 199 1.7 4.3 0.00 0.00 0.00 75 1010.6
20240222113204 57 203 1.7 4.3 0.00 0.00 0.00 75 1010.6
20240222113004 57 193 1.7 4.3 0.00 0.00 0.00 74 1010.7
20240222112804 57 198 1.7 5.2 0.00 0.00 0.00 74 1010.8
20240222112604 57 205 1.7 5.2 0.00 0.00 0.00 74 1010.8
20240222112404 57 203 1.7 5.2 0.00 0.00 0.00 74 1010.9
20240222112204 57 207 1.7 5.2 0.00 0.00 0.00 74 1011.0
20240222112005 57 211 1.7 5.2 0.00 0.00 0.00 74 1010.9
20240222111805 57 205 1.7 5.2 0.00 0.00 0.00 74 1011.0
20240222111604 57 196 1.7 4.3 0.00 0.00 0.00 74 1011.1
20240222111405 57 206 1.7 4.3 0.00 0.00 0.00 74 1011.1
20240222111205 57 198 1.7 4.3 0.00 0.00 0.00 73 1011.1
20240222111005 57 196 1.7 5.2 0.00 0.00 0.00 73 1011.1
20240222110805 57 199 1.7 5.2 0.00 0.00 0.00 73 1011.2
20240222110604 57 200 1.7 5.2 0.00 0.00 0.00 73 1011.1
20240222110405 57 197 1.7 5.2 0.00 0.00 0.00 73 1011.1
20240222110205 57 206 1.7 5.2 0.00 0.00 0.00 73 1011.1
20240222110005 57 204 1.7 5.2 0.00 0.00 0.00 73 1011.1
20240222105805 57 200 1.7 5.2 0.00 0.00 0.00 72 1011.0
20240222105605 57 201 1.7 5.2 0.00 0.00 0.00 72 1011.1
20240222105405 57 196 1.7 5.2 0.00 0.00 0.00 72 1011.1
20240222105204 57 189 1.7 5.2 0.00 0.00 0.00 72 1011.1
20240222105005 57 193 1.7 4.3 0.00 0.00 0.00 72 1011.1
20240222104804 57 196 1.7 4.3 0.00 0.00 0.00 72 1011.1
20240222104604 57 197 1.7 4.3 0.00 0.00 0.00 72 1011.1
20240222104405 57 198 2.6 5.2 0.00 0.00 0.00 72 1011.1
20240222104226 57 201 2.6 6.1 0.00 0.00 0.00 72 1011.1
20240222104005 57 197 2.6 7.0 0.00 0.00 0.00 72 1011.1
20240222103805 57 191 2.6 7.0 0.00 0.00 0.00 72 1011.1
20240222103626 57 190 1.7 7.0 0.00 0.00 0.00 71 1011.0
20240222103405 57 184 1.7 7.0 0.00 0.00 0.00 72 1011.0
20240222103205 57 182 1.7 7.0 0.00 0.00 0.00 71 1011.0
20240222103005 57 180 1.7 4.3 0.00 0.00 0.00 71 1011.1
20240222102804 57 182 1.7 4.3 0.00 0.00 0.00 71 1011.1
20240222102604 57 184 1.7 4.3 0.00 0.00 0.00 71 1011.1
20240222102425 57 191 1.7 4.3 0.00 0.00 0.00 71 1011.1
20240222102204 57 191 1.7 5.2 0.00 0.00 0.00 71 1011.1
20240222102004 57 194 1.7 6.1 0.00 0.00 0.00 71 1011.2
20240222101804 57 192 1.7 6.1 0.00 0.00 0.00 71 1011.2
20240222101604 57 190 1.7 7.0 0.00 0.00 0.00 71 1011.2
20240222101404 57 186 1.7 7.0 0.00 0.00 0.00 71 1011.2
20240222101204 57 178 1.7 7.0 0.00 0.00 0.00 71 1011.1
20240222101004 57 180 1.7 7.0 0.00 0.00 0.00 71 1011.2
20240222100804 57 183 1.7 7.0 0.00 0.00 0.00 70 1011.3
20240222100604 57 179 1.7 5.2 0.00 0.00 0.00 70 1011.3
20240222100404 57 183 1.7 5.2 0.00 0.00 0.00 70 1011.2
20240222100205 57 189 1.7 5.2 0.00 0.00 0.00 70 1011.2
20240222100005 57 176 1.7 5.2 0.00 0.00 0.00 70 1011.3
20240222095805 57 175 1.7 5.2 0.00 0.00 0.00 70 1011.3
20240222095605 57 175 1.7 5.2 0.00 0.00 0.00 70 1011.3
20240222095405 57 174 1.7 5.2 0.00 0.00 0.00 70 1011.3
20240222095225 57 178 1.7 5.2 0.00 0.00 0.00 70 1011.4
20240222095004 57 182 1.7 4.3 0.00 0.00 0.00 70 1011.3
20240222094804 57 186 1.7 4.3 0.00 0.00 0.00 70 1011.3
20240222094604 57 191 1.7 4.3 0.00 0.00 0.00 70 1011.3
20240222094425 57 189 1.7 4.3 0.00 0.00 0.00 70 1011.5
20240222094204 57 185 1.7 4.3 0.00 0.00 0.00 69 1011.5
20240222094005 57 184 1.7 4.3 0.00 0.00 0.00 70 1011.5
20240222093805 57 186 1.7 4.3 0.00 0.00 0.00 69 1011.6
20240222093605 58 184 1.7 4.3 0.00 0.00 0.00 69 1011.6
20240222093426 57 179 1.7 3.5 0.00 0.00 0.00 69 1011.7
20240222093205 58 181 1.7 4.3 0.00 0.00 0.00 69 1011.7
20240222093004 58 182 1.7 4.3 0.00 0.00 0.00 69 1011.7
20240222092804 58 178 1.7 4.3 0.00 0.00 0.00 69 1011.7
20240222092604 58 177 1.7 4.3 0.00 0.00 0.00 69 1011.7
20240222092425 58 180 1.7 4.3 0.00 0.00 0.00 69 1011.8
20240222092204 58 186 1.7 7.0 0.00 0.00 0.00 69 1011.8
20240222092025 58 186 1.7 7.0 0.00 0.00 0.00 69 1011.8
20240222091804 58 188 1.7 7.0 0.00 0.00 0.00 69 1011.9
20240222091604 58 187 1.7 7.0 0.00 0.00 0.00 69 1011.9
20240222091404 58 187 1.7 7.0 0.00 0.00 0.00 68 1011.9
20240222091225 58 186 1.7 4.3 0.00 0.00 0.00 69 1011.9
20240222091025 58 180 1.7 4.3 0.00 0.00 0.00 69 1011.8
20240222090805 58 176 1.7 4.3 0.00 0.00 0.00 68 1012.0
20240222090627 58 179 1.7 4.3 0.00 0.00 0.00 68 1012.0
20240222090426 58 178 1.7 4.3 0.00 0.00 0.00 68 1012.0
20240222090205 58 177 1.7 4.3 0.00 0.00 0.00 68 1012.1
20240222090006 58 183 1.7 4.3 0.00 0.00 0.00 68 1012.0
20240222085805 58 184 1.7 4.3 0.00 0.00 0.00 68 1012.0
20240222085605 57 182 1.7 3.5 0.00 0.00 0.00 68 1012.0
20240222085405 58 184 1.7 3.5 0.00 0.00 0.00 68 1012.0
20240222085205 57 185 1.7 3.5 0.00 0.00 0.00 68 1012.1
20240222085005 57 178 1.7 4.3 0.00 0.00 0.00 68 1012.1
20240222084825 57 180 1.7 4.3 0.00 0.00 0.00 68 1012.1
20240222084604 57 183 1.7 5.2 0.00 0.00 0.00 68 1012.2
20240222084404 57 182 1.7 5.2 0.00 0.00 0.00 68 1012.2
20240222084205 57 184 1.7 5.2 0.00 0.00 0.00 68 1012.2
20240222084005 57 190 1.7 5.2 0.00 0.00 0.00 68 1012.2
20240222083805 57 185 1.7 5.2 0.00 0.00 0.00 68 1012.2
20240222083605 57 187 1.7 4.3 0.00 0.00 0.00 68 1012.2
20240222083405 57 184 1.7 4.3 0.00 0.00 0.00 68 1012.3
20240222083204 57 178 1.7 4.3 0.00 0.00 0.00 68 1012.2
20240222083004 57 176 1.7 4.3 0.00 0.00 0.00 68 1012.3
20240222082825 57 181 1.7 3.5 0.00 0.00 0.00 68 1012.2
20240222082605 57 183 1.7 4.3 0.00 0.00 0.00 68 1012.3
20240222082404 57 187 1.7 4.3 0.00 0.00 0.00 68 1012.3
20240222082204 57 188 1.7 4.3 0.00 0.00 0.00 68 1012.3
20240222082004 57 191 1.7 4.3 0.00 0.00 0.00 68 1012.4
20240222081805 57 183 1.7 4.3 0.00 0.00 0.00 68 1012.3
20240222081605 57 176 1.7 4.3 0.00 0.00 0.00 68 1012.3
20240222081404 57 170 1.7 4.3 0.00 0.00 0.00 68 1012.4
20240222081205 57 163 1.7 4.3 0.00 0.00 0.00 68 1012.4
20240222081026 57 161 1.7 4.3 0.00 0.00 0.00 68 1012.4
20240222080804 56 168 1.7 4.3 0.00 0.00 0.00 68 1012.5
20240222080625 56 178 1.7 4.3 0.00 0.00 0.00 68 1012.4
20240222080404 56 186 1.7 4.3 0.00 0.00 0.00 69 1012.4
20240222080204 56 196 1.7 4.3 0.00 0.00 0.00 69 1012.4
20240222080004 56 194 1.7 5.2 0.00 0.00 0.00 69 1012.5
20240222075804 56 192 1.7 5.2 0.00 0.00 0.00 69 1012.6
20240222075604 55 198 1.7 5.2 0.00 0.00 0.00 70 1012.7
20240222075404 55 204 0.9 5.2 0.00 0.00 0.00 70 1012.6
20240222075206 55 203 0.9 5.2 0.00 0.00 0.00 70 1012.7
20240222075005 55 209 0.9 5.2 0.00 0.00 0.00 70 1012.7
20240222074805 55 209 0.9 5.2 0.00 0.00 0.00 70 1012.7
20240222074605 54 206 0.9 3.5 0.00 0.00 0.00 70 1012.7
20240222074404 54 196 0.9 2.6 0.00 0.00 0.00 70 1012.8
20240222074204 54 204 0.9 2.6 0.00 0.00 0.00 70 1012.8
20240222074004 54 202 0.9 2.6 0.00 0.00 0.00 70 1012.8
20240222073804 54 197 0.9 6.1 0.00 0.00 0.00 70 1012.8
20240222073604 54 199 0.9 6.1 0.00 0.00 0.00 70 1012.9
20240222073404 54 204 0.9 6.1 0.00 0.00 0.00 69 1012.9
20240222073204 54 204 0.9 6.1 0.00 0.00 0.00 70 1013.0
20240222073004 54 203 0.9 6.1 0.00 0.00 0.00 69 1013.0
20240222072804 54 209 0.9 2.6 0.00 0.00 0.00 69 1013.0
20240222072604 54 205 0.9 1.7 0.00 0.00 0.00 69 1013.1
20240222072404 54 206 0.9 1.7 0.00 0.00 0.00 69 1013.1
20240222072226 54 206 0.9 1.7 0.00 0.00 0.00 69 1013.1
20240222072005 54 209 0.9 2.6 0.00 0.00 0.00 69 1013.0
20240222071806 54 217 0.9 2.6 0.00 0.00 0.00 69 1013.1
20240222071605 54 221 0.9 2.6 0.00 0.00 0.00 68 1013.1
20240222071404 54 220 0.9 2.6 0.00 0.00 0.00 68 1013.1
20240222071204 54 214 0.9 2.6 0.00 0.00 0.00 68 1013.2
20240222071004 54 211 0.9 1.7 0.00 0.00 0.00 68 1013.1
20240222070825 54 208 0.9 1.7 0.00 0.00 0.00 68 1013.2
20240222070604 54 205 0.9 2.6 0.00 0.00 0.00 68 1013.2
20240222070404 54 200 0.9 2.6 0.00 0.00 0.00 68 1013.1
20240222070204 54 201 0.9 2.6 0.00 0.00 0.00 68 1013.1
20240222070005 54 203 0.9 2.6 0.00 0.00 0.00 67 1013.1
20240222065805 54 207 0.9 2.6 0.00 0.00 0.00 67 1013.1
20240222065605 54 204 0.9 2.6 0.00 0.00 0.00 67 1013.1
20240222065405 55 196 0.9 2.6 0.00 0.00 0.00 67 1013.1
20240222065225 55 194 0.9 2.6 0.00 0.00 0.00 67 1013.1
20240222065025 55 193 0.9 2.6 0.00 0.00 0.00 66 1013.1
20240222064804 55 183 0.9 2.6 0.00 0.00 0.00 66 1013.1
20240222064605 55 180 0.9 2.6 0.00 0.00 0.00 66 1013.1
20240222064425 55 193 0.9 3.5 0.00 0.00 0.00 66 1013.1
20240222064207 55 190 0.9 3.5 0.00 0.00 0.00 66 1013.2
20240222064005 55 188 0.9 3.5 0.00 0.00 0.00 66 1013.2
20240222063826 55 186 0.9 3.5 0.00 0.00 0.00 66 1013.2
20240222063605 55 183 0.9 3.5 0.00 0.00 0.00 66 1013.2
20240222063405 55 181 0.9 2.6 0.00 0.00 0.00 66 1013.2
20240222063205 55 183 0.9 2.6 0.00 0.00 0.00 66 1013.2
20240222063026 55 187 0.9 2.6 0.00 0.00 0.00 66 1013.3
20240222062805 55 181 0.9 2.6 0.00 0.00 0.00 65 1013.3
20240222062605 55 182 0.9 2.6 0.00 0.00 0.00 65 1013.3
20240222062404 55 178 0.9 2.6 0.00 0.00 0.00 65 1013.3
20240222062204 55 177 0.9 2.6 0.00 0.00 0.00 65 1013.3
20240222062025 55 176 0.9 2.6 0.00 0.00 0.00 65 1013.3
20240222061804 55 186 0.9 2.6 0.00 0.00 0.00 65 1013.4
20240222061604 55 191 0.9 2.6 0.00 0.00 0.00 65 1013.4
20240222061404 55 191 0.9 2.6 0.00 0.00 0.00 65 1013.4
20240222061225 55 189 0.9 2.6 0.00 0.00 0.00 65 1013.5
20240222061004 55 191 0.9 4.3 0.00 0.00 0.00 65 1013.4
20240222060804 55 195 0.9 4.3 0.00 0.00 0.00 65 1013.5
20240222060604 55 194 0.9 4.3 0.00 0.00 0.00 65 1013.5
20240222060405 55 197 0.9 4.3 0.00 0.00 0.00 65 1013.6
20240222060226 55 201 0.9 4.3 0.00 0.00 0.00 65 1013.7
20240222060006 55 194 0.9 4.3 0.00 0.00 0.00 65 1013.7
20240222055805 55 190 0.9 4.3 0.00 0.00 0.00 65 1013.6
20240222055604 55 187 0.9 4.3 0.00 0.00 0.00 64 1013.6
20240222055426 55 184 0.9 4.3 0.00 0.00 0.00 64 1013.6
20240222055205 55 187 0.9 4.3 0.00 0.00 0.00 64 1013.6
20240222055004 55 192 0.9 1.7 0.00 0.00 0.00 64 1013.6
20240222054826 55 191 0.9 1.7 0.00 0.00 0.00 64 1013.7
20240222054604 55 191 0.9 1.7 0.00 0.00 0.00 64 1013.7
20240222054426 55 200 0.9 1.7 0.00 0.00 0.00 64 1013.7
20240222054226 55 194 0.9 1.7 0.00 0.00 0.00 64 1013.7
20240222054004 55 191 0.9 1.7 0.00 0.00 0.00 64 1013.6
20240222053805 55 199 0.9 1.7 0.00 0.00 0.00 64 1013.7
20240222053626 55 203 0.9 1.7 0.00 0.00 0.00 64 1013.7
20240222053426 55 194 0.9 1.7 0.00 0.00 0.00 63 1013.7
20240222053204 55 194 0.9 2.6 0.00 0.00 0.00 63 1013.6
20240222053004 56 199 0.9 2.6 0.00 0.00 0.00 63 1013.6
20240222052804 56 194 0.9 2.6 0.00 0.00 0.00 63 1013.7
20240222052605 56 187 0.9 2.6 0.00 0.00 0.00 62 1013.7
20240222052404 56 189 0.9 2.6 0.00 0.00 0.00 62 1013.8
20240222052205 56 187 0.9 4.3 0.00 0.00 0.00 62 1013.8
20240222052005 56 185 0.9 4.3 0.00 0.00 0.00 62 1013.7
20240222051805 56 185 0.9 4.3 0.00 0.00 0.00 62 1013.8
20240222051605 56 187 0.9 4.3 0.00 0.00 0.00 62 1013.7
20240222051405 56 190 0.9 4.3 0.00 0.00 0.00 62 1013.8
20240222051205 56 193 0.9 2.6 0.00 0.00 0.00 62 1013.8
20240222051004 56 195 0.9 2.6 0.00 0.00 0.00 62 1013.8
20240222050825 56 192 0.9 2.6 0.00 0.00 0.00 61 1013.8
20240222050627 56 185 0.9 2.6 0.00 0.00 0.00 61 1013.9
20240222050425 56 183 1.7 4.3 0.00 0.00 0.00 61 1013.9
20240222050204 57 180 1.7 4.3 0.00 0.00 0.00 61 1013.9
20240222050004 57 177 1.7 4.3 0.00 0.00 0.00 60 1013.8
20240222045804 57 178 1.7 4.3 0.00 0.00 0.00 60 1013.8
20240222045604 57 181 1.7 4.3 0.00 0.00 0.00 60 1013.8
20240222045405 57 176 1.7 3.5 0.00 0.00 0.00 60 1013.9
20240222045205 57 174 0.9 3.5 0.00 0.00 0.00 60 1013.9
20240222045026 57 178 0.9 3.5 0.00 0.00 0.00 60 1014.1
20240222044805 57 174 0.9 3.5 0.00 0.00 0.00 60 1014.1
20240222044604 57 171 0.9 3.5 0.00 0.00 0.00 60 1014.1
20240222044404 57 170 0.9 3.5 0.00 0.00 0.00 60 1014.2
20240222044225 57 169 0.9 3.5 0.00 0.00 0.00 60 1014.1
20240222044004 57 164 0.9 3.5 0.00 0.00 0.00 60 1014.1
20240222043804 57 159 0.9 2.6 0.00 0.00 0.00 59 1014.3
20240222043604 57 159 0.9 2.6 0.00 0.00 0.00 59 1014.2
20240222043404 57 165 0.9 2.6 0.00 0.00 0.00 59 1014.2
20240222043205 57 162 0.9 2.6 0.00 0.00 0.00 59 1014.2
20240222043026 57 158 0.9 2.6 0.00 0.00 0.00 59 1014.3
20240222042805 57 168 1.7 2.6 0.00 0.00 0.00 58 1014.3
20240222042605 57 168 1.7 2.6 0.00 0.00 0.00 58 1014.3
20240222042407 57 164 1.7 2.6 0.00 0.00 0.00 58 1014.4
20240222042204 57 166 1.7 2.6 0.00 0.00 0.00 58 1014.4
20240222042004 58 169 1.7 3.5 0.00 0.00 0.00 58 1014.4
20240222041804 58 165 1.7 3.5 0.00 0.00 0.00 58 1014.4
20240222041604 58 166 1.7 3.5 0.00 0.00 0.00 58 1014.5
20240222041404 58 163 1.7 4.3 0.00 0.00 0.00 58 1014.5
20240222041204 58 164 1.7 4.3 0.00 0.00 0.00 58 1014.5
20240222041025 58 161 1.7 4.3 0.00 0.00 0.00 58 1014.5
20240222040826 58 162 1.7 4.3 0.00 0.00 0.00 58 1014.5
20240222040605 58 165 1.7 4.3 0.00 0.00 0.00 58 1014.6
20240222040405 58 169 1.7 3.5 0.00 0.00 0.00 58 1014.5
20240222040205 58 167 1.7 3.5 0.00 0.00 0.00 58 1014.5
20240222040004 58 172 1.7 3.5 0.00 0.00 0.00 58 1014.5
20240222035804 58 166 1.7 3.5 0.00 0.00 0.00 58 1014.5
20240222035604 58 166 1.7 4.3 0.00 0.00 0.00 58 1014.4
20240222035404 58 165 1.7 4.3 0.00 0.00 0.00 58 1014.5
20240222035204 58 163 1.7 4.3 0.00 0.00 0.00 58 1014.5
20240222035004 58 161 1.7 4.3 0.00 0.00 0.00 58 1014.6
20240222034804 58 165 1.7 4.3 0.00 0.00 0.00 58 1014.6
20240222034605 58 164 1.7 3.5 0.00 0.00 0.00 58 1014.7
20240222034405 58 164 1.7 2.6 0.00 0.00 0.00 58 1014.7
20240222034226 58 166 1.7 3.5 0.00 0.00 0.00 58 1014.7
20240222034025 58 171 1.7 3.5 0.00 0.00 0.00 58 1014.8
20240222033804 58 173 1.7 3.5 0.00 0.00 0.00 58 1014.8
20240222033625 58 172 0.9 3.5 0.00 0.00 0.00 58 1014.9
20240222033404 58 169 0.9 3.5 0.00 0.00 0.00 58 1014.9
20240222033204 58 173 1.7 3.5 0.00 0.00 0.00 58 1014.9
20240222033005 58 164 1.7 5.2 0.00 0.00 0.00 58 1014.8
20240222032804 58 166 1.7 5.2 0.00 0.00 0.00 58 1014.9
20240222032604 58 170 1.7 5.2 0.00 0.00 0.00 58 1014.9
20240222032404 58 170 1.7 5.2 0.00 0.00 0.00 58 1015.0
20240222032205 58 167 1.7 5.2 0.00 0.00 0.00 58 1015.0
20240222032005 58 174 1.7 3.5 0.00 0.00 0.00 58 1015.0
20240222031805 58 178 1.7 3.5 0.00 0.00 0.00 58 1015.0
20240222031605 58 175 0.9 3.5 0.00 0.00 0.00 58 1015.0
20240222031404 58 181 0.9 3.5 0.00 0.00 0.00 58 1015.1
20240222031204 58 185 0.9 3.5 0.00 0.00 0.00 59 1015.2
20240222031004 58 185 0.9 3.5 0.00 0.00 0.00 59 1015.2
20240222030804 58 181 0.9 3.5 0.00 0.00 0.00 59 1015.2
20240222030604 58 183 0.9 3.5 0.00 0.00 0.00 59 1015.2
20240222030404 58 182 0.9 2.6 0.00 0.00 0.00 59 1015.2
20240222030205 58 186 0.9 2.6 0.00 0.00 0.00 59 1015.2
20240222030005 58 181 0.9 2.6 0.00 0.00 0.00 58 1015.2
20240222025825 58 186 0.9 2.6 0.00 0.00 0.00 58 1015.3
20240222025604 58 184 0.9 2.6 0.00 0.00 0.00 58 1015.3
20240222025426 58 179 0.9 2.6 0.00 0.00 0.00 58 1015.3
20240222025205 58 173 0.9 2.6 0.00 0.00 0.00 58 1015.3
20240222025005 58 173 0.9 2.6 0.00 0.00 0.00 58 1015.3
20240222024804 58 169 0.9 2.6 0.00 0.00 0.00 58 1015.2
20240222024604 58 172 0.9 2.6 0.00 0.00 0.00 58 1015.3
20240222024404 58 176 0.9 2.6 0.00 0.00 0.00 58 1015.3
20240222024204 58 185 0.9 2.6 0.00 0.00 0.00 58 1015.4
20240222024004 58 192 0.9 2.6 0.00 0.00 0.00 58 1015.4
20240222023804 58 188 0.9 2.6 0.00 0.00 0.00 59 1015.4
20240222023604 58 185 0.9 2.6 0.00 0.00 0.00 59 1015.4
20240222023405 58 187 0.9 2.6 0.00 0.00 0.00 59 1015.4
20240222023205 58 185 0.9 2.6 0.00 0.00 0.00 59 1015.4
20240222023027 58 181 0.9 2.6 0.00 0.00 0.00 59 1015.4
20240222022805 58 183 0.9 2.6 0.00 0.00 0.00 59 1015.4
20240222022625 58 183 0.9 2.6 0.00 0.00 0.00 59 1015.4
20240222022404 58 182 0.9 2.6 0.00 0.00 0.00 59 1015.4
20240222022204 58 180 0.9 2.6 0.00 0.00 0.00 59 1015.4
20240222022004 58 179 0.9 2.6 0.00 0.00 0.00 60 1015.5
20240222021804 58 181 0.9 2.6 0.00 0.00 0.00 60 1015.5
20240222021604 58 178 0.9 2.6 0.00 0.00 0.00 60 1015.4
20240222021404 58 181 0.9 2.6 0.00 0.00 0.00 60 1015.5
20240222021204 58 180 0.9 2.6 0.00 0.00 0.00 60 1015.5
20240222021006 58 180 0.9 2.6 0.00 0.00 0.00 60 1015.5
20240222020804 58 183 0.9 2.6 0.00 0.00 0.00 60 1015.6
20240222020605 58 186 0.9 1.7 0.00 0.00 0.00 60 1015.6
20240222020405 58 186 0.9 1.7 0.00 0.00 0.00 61 1015.6
20240222020225 57 184 0.9 1.7 0.00 0.00 0.00 61 1015.6
20240222020004 57 190 0.9 1.7 0.00 0.00 0.00 61 1015.6
20240222015804 57 196 0.9 3.5 0.00 0.00 0.00 61 1015.6
20240222015625 57 198 0.9 3.5 0.00 0.00 0.00 61 1015.6
20240222015405 57 191 0.9 3.5 0.00 0.00 0.00 61 1015.6
20240222015225 57 196 0.9 3.5 0.00 0.00 0.00 61 1015.6
20240222015004 57 198 0.9 3.5 0.00 0.00 0.00 61 1015.6
20240222014804 57 199 0.9 2.6 0.00 0.00 0.00 61 1015.6
20240222014604 57 197 0.9 2.6 0.00 0.00 0.00 61 1015.6
20240222014404 57 199 0.9 1.7 0.00 0.00 0.00 61 1015.6
20240222014204 57 191 0.9 1.7 0.00 0.00 0.00 61 1015.7
20240222014005 57 186 0.9 1.7 0.00 0.00 0.00 61 1015.6
20240222013825 57 184 0.9 1.7 0.00 0.00 0.00 61 1015.6
20240222013604 57 181 0.0 1.7 0.00 0.00 0.00 61 1015.6
20240222013405 57 186 0.0 1.7 0.00 0.00 0.00 61 1015.6
20240222013205 57 188 0.0 1.7 0.00 0.00 0.00 61 1015.6
20240222013005 57 193 0.0 1.7 0.00 0.00 0.00 61 1015.6
20240222012804 57 193 0.0 1.7 0.00 0.00 0.00 61 1015.7
20240222012604 57 190 0.0 0.9 0.00 0.00 0.00 61 1015.6
20240222012425 57 182 0.0 0.9 0.00 0.00 0.00 60 1015.6
20240222012204 57 175 0.0 0.9 0.00 0.00 0.00 60 1015.6
20240222012004 58 174 0.0 0.9 0.00 0.00 0.00 60 1015.7
20240222011804 58 174 0.0 0.9 0.00 0.00 0.00 60 1015.6
20240222011604 58 156 0.0 0.9 0.00 0.00 0.00 59 1015.6
20240222011404 58 137 0.0 0.9 0.00 0.00 0.00 59 1015.6
20240222011204 58 141 0.0 0.9 0.00 0.00 0.00 59 1015.6
20240222011004 58 142 0.0 0.9 0.00 0.00 0.00 59 1015.5
20240222010826 58 148 0.0 0.9 0.00 0.00 0.00 59 1015.5
20240222010606 58 153 0.0 0.9 0.00 0.00 0.00 58 1015.5
20240222010405 58 173 0.0 1.7 0.00 0.00 0.00 58 1015.5
20240222010205 59 179 0.0 1.7 0.00 0.00 0.00 58 1015.5
20240222010005 59 180 0.0 1.7 0.00 0.00 0.00 58 1015.5
20240222005805 59 177 0.0 1.7 0.00 0.00 0.00 58 1015.6
20240222005626 59 176 0.0 1.7 0.00 0.00 0.00 58 1015.6
20240222005404 59 162 0.0 0.9 0.00 0.00 0.00 58 1015.5
20240222005204 59 163 0.0 0.9 0.00 0.00 0.00 58 1015.5
20240222005004 59 161 0.0 0.9 0.00 0.00 0.00 58 1015.5
20240222004804 59 161 0.0 0.9 0.00 0.00 0.00 58 1015.4
20240222004605 59 163 0.0 0.9 0.00 0.00 0.00 58 1015.4
20240222004426 59 163 0.0 0.9 0.00 0.00 0.00 58 1015.5
20240222004204 59 161 0.0 0.9 0.00 0.00 0.00 58 1015.5
20240222004005 59 159 0.0 0.9 0.00 0.00 0.00 58 1015.5
20240222003828 59 170 0.0 0.9 0.00 0.00 0.00 58 1015.6
20240222003605 59 192 0.0 0.9 0.00 0.00 0.00 58 1015.6
20240222003405 59 192 0.0 0.9 0.00 0.00 0.00 57 1015.6
20240222003207 59 191 0.0 0.9 0.00 0.00 0.00 57 1015.6
20240222003004 60 190 0.0 0.9 0.00 0.00 0.00 57 1015.6
20240222002804 60 188 0.0 0.9 0.00 0.00 0.00 57 1015.6
20240222002604 60 179 0.0 0.9 0.00 0.00 0.00 56 1015.7
20240222002404 60 172 0.0 0.9 0.00 0.00 0.00 56 1015.6
20240222002204 61 167 0.0 0.9 0.00 0.00 0.00 56 1015.6
20240222002004 61 167 0.0 0.9 0.00 0.00 0.00 55 1015.6
20240222001804 61 172 0.0 1.7 0.00 0.00 0.00 55 1015.7
20240222001604 61 178 0.0 1.7 0.00 0.00 0.00 55 1015.7
20240222001426 61 182 0.9 1.7 0.00 0.00 0.00 55 1015.6
20240222001204 61 183 0.9 1.7 0.00 0.00 0.00 55 1015.8
20240222001004 61 176 0.9 1.7 0.00 0.00 0.00 54 1015.8
20240222000805 61 172 0.9 1.7 0.00 0.00 0.00 54 1015.9
20240222000605 61 171 0.9 1.7 0.00 0.00 0.00 54 1015.8
20240222000404 62 170 0.9 1.7 0.00 0.00 0.00 54 1015.9
20240222000226 62 174 0.9 1.7 0.00 0.00 0.00 54 1015.9
20240222000004 62 172 0.9 1.7 0.00 0.00 0.00 54 1015.9
20240221235826 62 172 0.9 1.7 0.00 0.00 0.00 54 1015.9
20240221235625 62 168 0.9 1.7 0.00 0.00 0.00 53 1016.0
20240221235405 62 167 0.9 2.6 0.00 0.00 0.00 54 1016.0
20240221235205 62 164 0.9 2.6 0.00 0.00 0.00 54 1016.0
20240221235005 62 167 0.9 2.6 0.00 0.00 0.00 54 1016.1
20240221234804 62 169 0.9 2.6 0.00 0.00 0.00 53 1016.1
20240221234604 62 174 0.9 2.6 0.00 0.00 0.00 54 1016.1
20240221234405 62 176 0.9 2.6 0.00 0.00 0.00 53 1016.1
20240221234225 62 179 0.9 2.6 0.00 0.00 0.00 53 1016.2
20240221234004 62 178 0.9 2.6 0.00 0.00 0.00 53 1016.2
20240221233825 62 184 0.9 1.7 0.00 0.00 0.00 53 1016.2
20240221233606 62 181 0.9 1.7 0.00 0.00 0.00 53 1016.3
20240221233404 63 183 0.9 1.7 0.00 0.00 0.00 53 1016.2
20240221233204 63 182 0.9 1.7 0.00 0.00 0.00 53 1016.2
20240221233004 63 185 0.9 1.7 0.00 0.00 0.00 53 1016.2
20240221232825 63 188 0.9 2.6 0.00 0.00 0.00 52 1016.2
20240221232606 63 196 0.9 2.6 0.00 0.00 0.00 52 1016.3
20240221232405 63 196 0.9 2.6 0.00 0.00 0.00 52 1016.3
20240221232204 64 193 0.9 2.6 0.00 0.00 0.00 51 1016.3
20240221232004 64 188 0.9 2.6 0.00 0.00 0.00 51 1016.3
20240221231825 64 180 0.9 4.3 0.00 0.00 0.00 51 1016.3
20240221231626 64 176 0.9 4.3 0.00 0.00 0.00 51 1016.2
20240221231405 64 173 0.9 4.3 0.00 0.00 0.00 51 1016.2
20240221231204 64 174 1.7 4.3 0.00 0.00 0.00 50 1016.2
20240221231004 65 171 1.7 4.3 0.00 0.00 0.00 50 1016.1
20240221230804 65 175 1.7 3.5 0.00 0.00 0.00 50 1016.2
20240221230604 65 172 1.7 4.3 0.00 0.00 0.00 50 1016.2
20240221230405 65 170 1.7 4.3 0.00 0.00 0.00 50 1016.2
20240221230205 65 166 1.7 4.3 0.00 0.00 0.00 49 1016.2
20240221230004 65 166 1.7 4.3 0.00 0.00 0.00 49 1016.2
20240221225805 65 159 1.7 4.3 0.00 0.00 0.00 49 1016.1
20240221225605 65 156 1.7 6.1 0.00 0.00 0.00 49 1016.2
20240221225405 65 155 1.7 6.1 0.00 0.00 0.00 49 1016.2
20240221225204 65 156 1.7 6.1 0.00 0.00 0.00 49 1016.3
20240221225004 65 160 1.7 6.1 0.00 0.00 0.00 49 1016.4
20240221224805 65 169 1.7 6.1 0.00 0.00 0.00 50 1016.4
20240221224605 66 175 1.7 3.5 0.00 0.00 0.00 49 1016.5
20240221224404 66 183 1.7 3.5 0.00 0.00 0.00 50 1016.6
20240221224204 66 181 1.7 3.5 0.00 0.00 0.00 49 1016.6
20240221224004 66 169 1.7 3.5 0.00 0.00 0.00 49 1016.7
20240221223804 66 168 1.7 3.5 0.00 0.00 0.00 49 1016.7
20240221223605 66 171 1.7 3.5 0.00 0.00 0.00 49 1016.8
20240221223405 66 165 1.7 3.5 0.00 0.00 0.00 48 1016.8
20240221223204 66 167 1.7 3.5 0.00 0.00 0.00 48 1016.9
20240221223004 66 179 1.7 3.5 0.00 0.00 0.00 49 1016.9
20240221222806 66 171 1.7 6.1 0.00 0.00 0.00 49 1017.0
20240221222605 66 168 1.7 6.1 0.00 0.00 0.00 48 1017.0
20240221222405 67 171 1.7 6.1 0.00 0.00 0.00 48 1017.0
20240221222225 67 170 1.7 6.1 0.00 0.00 0.00 48 1017.1
20240221222004 67 171 1.7 6.1 0.00 0.00 0.00 48 1017.1
20240221221804 67 180 1.7 6.1 0.00 0.00 0.00 47 1017.1
20240221221604 67 175 1.7 5.2 0.00 0.00 0.00 47 1017.1
20240221221405 67 166 1.7 6.1 0.00 0.00 0.00 47 1017.1
20240221221225 67 165 1.7 6.1 0.00 0.00 0.00 47 1017.2
20240221221004 68 166 1.7 6.1 0.00 0.00 0.00 47 1017.2
20240221220805 68 161 1.7 6.1 0.00 0.00 0.00 47 1017.2
20240221220626 68 161 1.7 6.1 0.00 0.00 0.00 46 1017.2
20240221220425 68 163 1.7 4.3 0.00 0.00 0.00 46 1017.2
20240221220204 68 169 1.7 4.3 0.00 0.00 0.00 46 1017.3
20240221220004 68 171 1.7 4.3 0.00 0.00 0.00 46 1017.3
20240221215806 68 172 2.6 5.2 0.00 0.00 0.00 46 1017.3
20240221215605 68 172 2.6 5.2 0.00 0.00 0.00 45 1017.4
20240221215405 68 173 2.6 5.2 0.00 0.00 0.00 46 1017.5
20240221215204 68 167 2.6 5.2 0.00 0.00 0.00 46 1017.5
20240221215026 68 163 2.6 5.2 0.00 0.00 0.00 46 1017.5
20240221214804 68 160 2.6 7.0 0.00 0.00 0.00 45 1017.5
20240221214604 68 156 2.6 7.0 0.00 0.00 0.00 45 1017.6
20240221214405 68 158 1.7 7.0 0.00 0.00 0.00 45 1017.6
20240221214206 68 162 1.7 7.0 0.00 0.00 0.00 45 1017.7
20240221214004 68 163 1.7 7.0 0.00 0.00 0.00 44 1017.7
20240221213804 68 167 1.7 5.2 0.00 0.00 0.00 44 1017.8
20240221213625 69 171 1.7 5.2 0.00 0.00 0.00 44 1017.8
20240221213404 69 177 1.7 5.2 0.00 0.00 0.00 44 1017.8
20240221213204 69 175 1.7 5.2 0.00 0.00 0.00 44 1017.9
20240221213004 69 182 1.7 5.2 0.00 0.00 0.00 45 1017.9
20240221212804 69 185 1.7 3.5 0.00 0.00 0.00 45 1017.9
20240221212625 69 181 1.7 4.3 0.00 0.00 0.00 45 1018.0
20240221212404 69 175 1.7 4.3 0.00 0.00 0.00 45 1018.0
20240221212204 69 171 1.7 4.3 0.00 0.00 0.00 46 1018.0
20240221212004 69 167 1.7 4.3 0.00 0.00 0.00 44 1018.0
20240221211804 69 167 1.7 5.2 0.00 0.00 0.00 44 1018.1
20240221211605 69 166 1.7 5.2 0.00 0.00 0.00 44 1018.1
20240221211404 69 169 1.7 5.2 0.00 0.00 0.00 44 1018.1
20240221211204 69 174 1.7 5.2 0.00 0.00 0.00 44 1018.1
20240221211004 69 177 2.6 5.2 0.00 0.00 0.00 44 1018.1
20240221210826 69 177 2.6 5.2 0.00 0.00 0.00 44 1018.1
20240221210605 69 174 2.6 8.7 0.00 0.00 0.00 45 1018.2
20240221210405 69 182 2.6 8.7 0.00 0.00 0.00 44 1018.2
20240221210204 69 187 1.7 8.7 0.00 0.00 0.00 44 1018.2
20240221210004 69 191 1.7 8.7 0.00 0.00 0.00 43 1018.3
20240221205804 69 204 1.7 8.7 0.00 0.00 0.00 43 1018.3
20240221205606 69 217 1.7 5.2 0.00 0.00 0.00 43 1018.3
20240221205426 69 215 1.7 4.3 0.00 0.00 0.00 43 1018.3
20240221205205 69 218 1.7 4.3 0.00 0.00 0.00 44 1018.3
20240221205004 69 223 1.7 4.3 0.00 0.00 0.00 44 1018.3
20240221204804 69 201 1.7 3.5 0.00 0.00 0.00 44 1018.4
20240221204604 69 195 1.7 3.5 0.00 0.00 0.00 44 1018.5
20240221204404 69 198 2.6 3.5 0.00 0.00 0.00 44 1018.6
20240221204205 69 191 2.6 5.2 0.00 0.00 0.00 44 1018.6
20240221204004 69 173 2.6 5.2 0.00 0.00 0.00 43 1018.5
20240221203805 69 174 2.6 5.2 0.00 0.00 0.00 44 1018.6
20240221203604 69 173 2.6 5.2 0.00 0.00 0.00 44 1018.6
20240221203404 69 167 1.7 5.2 0.00 0.00 0.00 42 1018.6
20240221203204 70 174 1.7 5.2 0.00 0.00 0.00 42 1018.7
20240221203005 70 177 1.7 4.3 0.00 0.00 0.00 42 1018.7
20240221202804 70 187 1.7 4.3 0.00 0.00 0.00 42 1018.8
20240221202604 70 190 1.7 4.3 0.00 0.00 0.00 45 1018.8
20240221202404 70 201 1.7 4.3 0.00 0.00 0.00 43 1018.8
20240221202204 70 199 1.7 4.3 0.00 0.00 0.00 44 1018.8
20240221202004 70 202 1.7 3.5 0.00 0.00 0.00 45 1018.8
20240221201804 69 192 1.7 5.2 0.00 0.00 0.00 44 1018.8
20240221201625 69 190 1.7 6.1 0.00 0.00 0.00 44 1018.9
20240221201405 69 190 2.6 6.1 0.00 0.00 0.00 44 1019.0
20240221201205 69 187 2.6 6.1 0.00 0.00 0.00 44 1019.0
20240221201004 69 201 2.6 6.1 0.00 0.00 0.00 43 1019.1
20240221200804 69 228 2.6 6.1 0.00 0.00 0.00 44 1019.1
20240221200604 69 226 2.6 4.3 0.00 0.00 0.00 44 1019.1
20240221200426 69 216 2.6 4.3 0.00 0.00 0.00 44 1019.2
20240221200204 69 219 1.7 4.3 0.00 0.00 0.00 44 1019.2
20240221200004 69 205 1.7 4.3 0.00 0.00 0.00 45 1019.3
20240221195804 70 184 1.7 5.2 0.00 0.00 0.00 44 1019.4
20240221195605 69 188 1.7 5.2 0.00 0.00 0.00 45 1019.4
20240221195405 69 191 1.7 5.2 0.00 0.00 0.00 45 1019.4
20240221195204 69 187 1.7 6.1 0.00 0.00 0.00 44 1019.5
20240221195004 69 181 1.7 6.1 0.00 0.00 0.00 44 1019.6
20240221194805 69 173 1.7 6.1 0.00 0.00 0.00 45 1019.6
20240221194605 69 172 1.7 6.1 0.00 0.00 0.00 44 1019.6
20240221194405 69 174 1.7 6.1 0.00 0.00 0.00 44 1019.7
20240221194225 69 168 1.7 6.1 0.00 0.00 0.00 44 1019.7
20240221194004 69 172 1.7 5.2 0.00 0.00 0.00 44 1019.7
20240221193825 69 184 1.7 5.2 0.00 0.00 0.00 44 1019.7
20240221193605 69 196 1.7 5.2 0.00 0.00 0.00 45 1019.8
20240221193405 69 208 1.7 4.3 0.00 0.00 0.00 45 1019.8
20240221193225 69 217 1.7 4.3 0.00 0.00 0.00 46 1019.9
20240221193026 69 226 1.7 3.5 0.00 0.00 0.00 47 1019.8
20240221192805 68 243 1.7 4.3 0.00 0.00 0.00 45 1019.9
20240221192605 68 244 1.7 4.3 0.00 0.00 0.00 48 1020.0
20240221192404 68 242 1.7 4.3 0.00 0.00 0.00 46 1019.9
20240221192204 68 234 2.6 5.2 0.00 0.00 0.00 47 1020.0
20240221192025 68 236 1.7 7.0 0.00 0.00 0.00 46 1020.0
20240221191804 68 217 1.7 7.0 0.00 0.00 0.00 46 1020.2
20240221191605 68 213 1.7 7.0 0.00 0.00 0.00 47 1020.2
20240221191404 68 217 1.7 7.0 0.00 0.00 0.00 45 1020.3
20240221191205 68 223 1.7 7.0 0.00 0.00 0.00 46 1020.4
20240221191004 68 217 1.7 5.2 0.00 0.00 0.00 47 1020.4
20240221190804 68 223 1.7 5.2 0.00 0.00 0.00 46 1020.4
20240221190605 68 217 1.7 5.2 0.00 0.00 0.00 47 1020.4
20240221190404 68 208 1.7 5.2 0.00 0.00 0.00 47 1020.5
20240221190225 67 195 1.7 5.2 0.00 0.00 0.00 47 1020.5
20240221190004 67 183 1.7 5.2 0.00 0.00 0.00 48 1020.5
20240221185805 67 175 1.7 5.2 0.00 0.00 0.00 47 1020.7
20240221185604 67 186 2.6 5.2 0.00 0.00 0.00 47 1020.7
20240221185426 67 186 2.6 5.2 0.00 0.00 0.00 47 1020.8
20240221185204 67 188 2.6 4.3 0.00 0.00 0.00 48 1020.9
20240221185004 67 177 2.6 7.0 0.00 0.00 0.00 48 1021.0
20240221184825 67 169 2.6 7.0 0.00 0.00 0.00 47 1021.0
20240221184604 67 165 2.6 7.0 0.00 0.00 0.00 48 1021.0
20240221184404 67 163 1.7 7.0 0.00 0.00 0.00 46 1021.1
20240221184226 67 162 1.7 7.0 0.00 0.00 0.00 46 1021.1
20240221184004 67 167 1.7 5.2 0.00 0.00 0.00 47 1021.2
20240221183804 67 173 1.7 5.2 0.00 0.00 0.00 47 1021.2
20240221183604 67 175 2.6 5.2 0.00 0.00 0.00 47 1021.2
20240221183425 67 175 2.6 5.2 0.00 0.00 0.00 48 1021.3
20240221183204 67 182 2.6 5.2 0.00 0.00 0.00 48 1021.4
20240221183005 67 186 2.6 5.2 0.00 0.00 0.00 48 1021.5
20240221182804 67 187 2.6 5.2 0.00 0.00 0.00 47 1021.5
20240221182604 67 188 2.6 5.2 0.00 0.00 0.00 49 1021.6
20240221182404 67 190 2.6 5.2 0.00 0.00 0.00 49 1021.6
20240221182225 67 185 2.6 4.3 0.00 0.00 0.00 49 1021.6
20240221182005 67 187 2.6 4.3 0.00 0.00 0.00 48 1021.6
20240221181826 67 190 1.7 5.2 0.00 0.00 0.00 48 1021.7
20240221181604 67 191 1.7 5.2 0.00 0.00 0.00 49 1021.8
20240221181404 67 184 1.7 7.0 0.00 0.00 0.00 49 1021.8
20240221181204 66 198 1.7 7.0 0.00 0.00 0.00 50 1021.8
20240221181004 66 210 1.7 7.0 0.00 0.00 0.00 50 1021.9
20240221180804 66 216 1.7 7.0 0.00 0.00 0.00 50 1022.0
20240221180625 66 212 2.6 7.0 0.00 0.00 0.00 49 1022.1
20240221180404 66 239 2.6 5.2 0.00 0.00 0.00 50 1022.2
20240221180204 66 234 2.6 5.2 0.00 0.00 0.00 50 1022.2
20240221180005 66 226 2.6 5.2 0.00 0.00 0.00 51 1022.2
20240221175805 66 216 2.6 5.2 0.00 0.00 0.00 51 1022.2
20240221175626 65 215 2.6 5.2 0.00 0.00 0.00 50 1022.3
20240221175404 65 199 2.6 5.2 0.00 0.00 0.00 49 1022.3
20240221175226 65 201 2.6 7.8 0.00 0.00 0.00 50 1022.4
20240221175004 65 209 2.6 7.8 0.00 0.00 0.00 50 1022.4
20240221174804 65 215 2.6 7.8 0.00 0.00 0.00 50 1022.4
20240221174605 65 221 2.6 7.8 0.00 0.00 0.00 51 1022.5
20240221174404 65 215 2.6 7.8 0.00 0.00 0.00 50 1022.6
20240221174204 65 205 2.6 6.1 0.00 0.00 0.00 49 1022.5
20240221174004 65 199 2.6 6.1 0.00 0.00 0.00 49 1022.6
20240221173806 66 193 2.6 5.2 0.00 0.00 0.00 50 1022.6
20240221173605 65 200 2.6 5.2 0.00 0.00 0.00 50 1022.6
20240221173405 65 212 1.7 4.3 0.00 0.00 0.00 50 1022.7
20240221173204 65 209 1.7 6.1 0.00 0.00 0.00 50 1022.6
20240221173004 65 205 1.7 6.1 0.00 0.00 0.00 51 1022.7
20240221172804 65 210 1.7 8.7 0.00 0.00 0.00 52 1022.7
20240221172604 65 207 2.6 8.7 0.00 0.00 0.00 51 1022.8
20240221172404 65 212 2.6 8.7 0.00 0.00 0.00 50 1022.7
20240221172205 65 222 2.6 8.7 0.00 0.00 0.00 50 1022.8
20240221172005 65 227 2.6 8.7 0.00 0.00 0.00 52 1022.8
20240221171825 65 225 2.6 6.1 0.00 0.00 0.00 51 1022.9
20240221171604 64 218 1.7 6.1 0.00 0.00 0.00 50 1022.9
20240221171404 64 219 1.7 6.1 0.00 0.00 0.00 50 1022.9
20240221171204 64 219 1.7 6.1 0.00 0.00 0.00 50 1023.0
20240221171005 65 222 1.7 5.2 0.00 0.00 0.00 50 1023.0
20240221170804 64 226 1.7 5.2 0.00 0.00 0.00 50 1023.1
20240221170604 64 228 1.7 5.2 0.00 0.00 0.00 52 1023.1
20240221170404 64 225 1.7 5.2 0.00 0.00 0.00 50 1023.1
20240221170205 64 226 1.7 5.2 0.00 0.00 0.00 50 1023.2
20240221170004 64 224 1.7 4.3 0.00 0.00 0.00 51 1023.2
20240221165804 64 226 1.7 4.3 0.00 0.00 0.00 51 1023.2
20240221165625 64 229 1.7 4.3 0.00 0.00 0.00 52 1023.3
20240221165404 64 211 1.7 4.3 0.00 0.00 0.00 51 1023.3
20240221165205 64 201 1.7 4.3 0.00 0.00 0.00 52 1023.3
20240221165005 64 199 1.7 4.3 0.00 0.00 0.00 53 1023.3
20240221164804 64 200 1.7 4.3 0.00 0.00 0.00 52 1023.4
20240221164604 64 218 1.7 4.3 0.00 0.00 0.00 50 1023.4
20240221164404 63 235 1.7 4.3 0.00 0.00 0.00 53 1023.4
20240221164226 63 244 1.7 4.3 0.00 0.00 0.00 53 1023.4
20240221164005 63 238 1.7 4.3 0.00 0.00 0.00 52 1023.5
20240221163804 63 242 1.7 4.3 0.00 0.00 0.00 53 1023.5
20240221163604 63 237 1.7 4.3 0.00 0.00 0.00 53 1023.5
20240221163425 63 239 1.7 4.3 0.00 0.00 0.00 52 1023.5
20240221163205 63 228 1.7 4.3 0.00 0.00 0.00 52 1023.5
20240221163005 62 237 1.7 4.3 0.00 0.00 0.00 51 1023.6
20240221162804 62 235 1.7 4.3 0.00 0.00 0.00 51 1023.6
20240221162604 62 233 1.7 4.3 0.00 0.00 0.00 52 1023.6
20240221162404 62 234 1.7 4.3 0.00 0.00 0.00 52 1023.7
20240221162204 62 239 1.7 4.3 0.00 0.00 0.00 52 1023.6
20240221162006 62 242 1.7 4.3 0.00 0.00 0.00 53 1023.6
20240221161804 62 242 1.7 4.3 0.00 0.00 0.00 52 1023.7
20240221161604 62 245 1.7 4.3 0.00 0.00 0.00 53 1023.7
20240221161404 62 252 1.7 5.2 0.00 0.00 0.00 52 1023.8
20240221161225 62 255 1.7 5.2 0.00 0.00 0.00 54 1023.9
20240221161004 61 251 1.7 5.2 0.00 0.00 0.00 53 1023.9
20240221160805 61 248 1.7 6.1 0.00 0.00 0.00 52 1023.9
20240221160625 61 249 1.7 6.1 0.00 0.00 0.00 52 1024.0
20240221160404 61 227 1.7 6.1 0.00 0.00 0.00 53 1024.0
20240221160204 61 220 1.7 6.1 0.00 0.00 0.00 53 1024.1
20240221160005 61 207 1.7 6.1 0.00 0.00 0.00 53 1024.0
20240221155826 61 195 1.7 4.3 0.00 0.00 0.00 53 1024.1
20240221155604 61 186 1.7 4.3 0.00 0.00 0.00 54 1024.2
20240221155404 60 193 1.7 4.3 0.00 0.00 0.00 54 1024.2
20240221155204 60 188 1.7 4.3 0.00 0.00 0.00 55 1024.2
20240221155004 60 197 1.7 4.3 0.00 0.00 0.00 55 1024.2
20240221154805 60 199 1.7 4.3 0.00 0.00 0.00 55 1024.2
20240221154605 59 185 1.7 4.3 0.00 0.00 0.00 55 1024.2
20240221154405 59 182 1.7 4.3 0.00 0.00 0.00 55 1024.3
20240221154204 59 184 1.7 4.3 0.00 0.00 0.00 56 1024.2
20240221154026 59 182 1.7 4.3 0.00 0.00 0.00 56 1024.3
20240221153804 59 194 1.7 4.3 0.00 0.00 0.00 55 1024.2
20240221153626 58 200 1.7 4.3 0.00 0.00 0.00 57 1024.3
20240221153426 58 199 1.7 4.3 0.00 0.00 0.00 56 1024.3
20240221153204 58 192 1.7 4.3 0.00 0.00 0.00 57 1024.3
20240221153004 58 198 1.7 4.3 0.00 0.00 0.00 58 1024.4
20240221152825 57 199 1.7 3.5 0.00 0.00 0.00 59 1024.5
20240221152604 57 207 1.7 3.5 0.00 0.00 0.00 59 1024.5
20240221152425 57 209 0.9 3.5 0.00 0.00 0.00 59 1024.5
20240221152204 56 217 0.9 3.5 0.00 0.00 0.00 59 1024.4
20240221152025 56 223 0.9 3.5 0.00 0.00 0.00 59 1024.5
20240221151804 56 226 0.9 3.5 0.00 0.00 0.00 60 1024.5
20240221151604 56 225 0.9 3.5 0.00 0.00 0.00 61 1024.6
20240221151404 55 213 0.9 3.5 0.00 0.00 0.00 62 1024.6
20240221151207 55 206 0.9 3.5 0.00 0.00 0.00 61 1024.6
20240221151004 55 193 0.9 3.5 0.00 0.00 0.00 63 1024.6
20240221150804 54 186 0.9 3.5 0.00 0.00 0.00 64 1024.6
20240221150604 54 190 0.9 3.5 0.00 0.00 0.00 63 1024.7
20240221150404 53 207 0.9 3.5 0.00 0.00 0.00 64 1024.7
20240221150205 53 224 0.9 3.5 0.00 0.00 0.00 64 1024.7
20240221150005 53 220 0.9 3.5 0.00 0.00 0.00 64 1024.7
20240221145804 53 212 0.9 3.5 0.00 0.00 0.00 67 1024.7
20240221145604 52 205 0.9 2.6 0.00 0.00 0.00 67 1024.8
20240221145404 52 198 0.9 2.6 0.00 0.00 0.00 66 1024.8
20240221145225 51 182 0.9 2.6 0.00 0.00 0.00 67 1024.9
20240221145026 51 180 0.0 1.7 0.00 0.00 0.00 69 1025.0
20240221144805 50 184 0.0 1.7 0.00 0.00 0.00 68 1025.1
20240221144604 50 180 0.0 1.7 0.00 0.00 0.00 69 1025.0
20240221144404 49 188 0.0 1.7 0.00 0.00 0.00 69 1025.1
20240221144204 49 171 0.0 1.7 0.00 0.00 0.00 71 1025.1
20240221144004 48 174 0.0 0.9 0.00 0.00 0.00 71 1025.1
20240221143805 48 172 0.0 0.9 0.00 0.00 0.00 72 1025.1
20240221143605 47 152 0.0 0.9 0.00 0.00 0.00 74 1025.1
20240221143404 47 152 0.0 0.9 0.00 0.00 0.00 75 1025.1
20240221143225 46 153 0.0 0.9 0.00 0.00 0.00 75 1025.0
20240221143026 45 161 0.0 0.9 0.00 0.00 0.00 76 1025.0
20240221142804 45 162 0.0 0.9 0.00 0.00 0.00 78 1025.0
20240221142604 44 162 0.0 0.9 0.00 0.00 0.00 79 1025.1
20240221142426 43 166 0.0 0.9 0.00 0.00 0.00 80 1025.1
20240221142204 43 173 0.0 0.9 0.00 0.00 0.00 81 1025.1
20240221142004 42 0 0.0 0.0 0.00 0.00 0.00 82 1025.1
20240221141805 41 0 0.0 0.0 0.00 0.00 0.00 81 1025.1
20240221141604 41 0 0.0 0.0 0.00 0.00 0.00 81 1025.2
20240221141404 40 0 0.0 0.0 0.00 0.00 0.00 81 1025.2
20240221141204 40 0 0.0 0.0 0.00 0.00 0.00 81 1025.2
20240221141025 40 0 0.0 0.0 0.00 0.00 0.00 81 1025.0
20240221140805 39 0 0.0 0.0 0.00 0.00 0.00 81 1025.0
20240221140604 39 0 0.0 0.0 0.00 0.00 0.00 82 1024.9
20240221140404 39 0 0.0 0.0 0.00 0.00 0.00 82 1024.9
20240221140204 39 0 0.0 0.0 0.00 0.00 0.00 82 1024.8
20240221140025 38 0 0.0 0.0 0.00 0.00 0.00 83 1024.8
20240221135825 38 0 0.0 0.0 0.00 0.00 0.00 83 1024.8
20240221135605 38 0 0.0 0.0 0.00 0.00 0.00 83 1025.0
20240221135405 37 0 0.0 0.0 0.00 0.00 0.00 83 1025.1
20240221135225 37 0 0.0 0.0 0.00 0.00 0.00 83 1025.1
20240221135004 37 0 0.0 0.0 0.00 0.00 0.00 84 1025.0
20240221134825 36 0 0.0 0.0 0.00 0.00 0.00 85 1025.0
20240221134604 36 0 0.0 0.0 0.00 0.00 0.00 85 1025.0
20240221134406 35 0 0.0 0.0 0.00 0.00 0.00 85 1025.0
20240221134204 35 0 0.0 0.0 0.00 0.00 0.00 86 1025.0
20240221134004 35 0 0.0 0.0 0.00 0.00 0.00 86 1025.1
20240221133804 34 0 0.0 0.0 0.00 0.00 0.00 86 1025.1
20240221133605 34 0 0.0 0.0 0.00 0.00 0.00 87 1025.0
20240221133426 34 0 0.0 0.0 0.00 0.00 0.00 87 1024.9
20240221133205 34 0 0.0 0.0 0.00 0.00 0.00 88 1024.8
20240221133004 33 0 0.0 0.0 0.00 0.00 0.00 88 1024.8
20240221132804 33 0 0.0 0.0 0.00 0.00 0.00 88 1025.0
20240221132604 33 0 0.0 0.0 0.00 0.00 0.00 89 1025.0
20240221132404 33 0 0.0 0.0 0.00 0.00 0.00 90 1025.0
20240221132225 32 0 0.0 0.0 0.00 0.00 0.00 90 1024.8
20240221132026 32 0 0.0 0.0 0.00 0.00 0.00 90 1024.8
20240221131804 32 0 0.0 0.0 0.00 0.00 0.00 90 1024.9
20240221131604 31 0 0.0 0.0 0.00 0.00 0.00 90 1024.9
20240221131404 31 0 0.0 0.0 0.00 0.00 0.00 90 1024.9
20240221131204 31 0 0.0 0.0 0.00 0.00 0.00 90 1025.0
20240221131004 30 0 0.0 0.0 0.00 0.00 0.00 91 1025.0
20240221130804 30 0 0.0 0.0 0.00 0.00 0.00 92 1024.9
20240221130604 30 0 0.0 0.0 0.00 0.00 0.00 92 1024.8
20240221130405 29 0 0.0 0.0 0.00 0.00 0.00 91 1024.9
20240221130204 29 0 0.0 0.0 0.00 0.00 0.00 91 1024.9
20240221130004 29 0 0.0 0.0 0.00 0.00 0.00 91 1025.0
20240221125804 29 0 0.0 0.0 0.00 0.00 0.00 91 1025.0
20240221125604 29 0 0.0 0.0 0.00 0.00 0.00 91 1024.9
20240221125404 29 0 0.0 0.0 0.00 0.00 0.00 91 1024.9
20240221125226 29 0 0.0 0.0 0.00 0.00 0.00 91 1025.0
20240221125004 28 0 0.0 0.0 0.00 0.00 0.00 91 1025.0
20240221124804 28 0 0.0 0.0 0.00 0.00 0.00 91 1024.9
20240221124604 28 0 0.0 0.0 0.00 0.00 0.00 91 1024.9
20240221124404 28 0 0.0 0.0 0.00 0.00 0.00 91 1025.0
20240221124205 28 0 0.0 0.0 0.00 0.00 0.00 91 1025.0
20240221124026 28 0 0.0 0.0 0.00 0.00 0.00 91 1025.1
20240221123826 28 0 0.0 0.0 0.00 0.00 0.00 91 1025.0
20240221123604 28 0 0.0 0.0 0.00 0.00 0.00 91 1025.0
20240221123404 28 0 0.0 0.0 0.00 0.00 0.00 91 1025.0
20240221123204 28 0 0.0 0.0 0.00 0.00 0.00 91 1024.9
20240221123005 28 0 0.0 0.0 0.00 0.00 0.00 91 1024.9
20240221122805 28 0 0.0 0.0 0.00 0.00 0.00 91 1024.9
20240221122626 28 0 0.0 0.0 0.00 0.00 0.00 91 1024.9
20240221122404 28 0 0.0 0.0 0.00 0.00 0.00 91 1024.9
20240221122204 28 0 0.0 0.0 0.00 0.00 0.00 91 1025.0
20240221122004 28 0 0.0 0.0 0.00 0.00 0.00 90 1024.9
20240221121805 28 0 0.0 0.0 0.00 0.00 0.00 90 1024.8
20240221121604 28 0 0.0 0.0 0.00 0.00 0.00 90 1024.8
20240221121404 28 0 0.0 0.0 0.00 0.00 0.00 90 1024.9
20240221121204 28 0 0.0 0.0 0.00 0.00 0.00 90 1024.8
20240221121005 28 0 0.0 0.0 0.00 0.00 0.00 90 1024.8
20240221120805 28 0 0.0 0.0 0.00 0.00 0.00 90 1024.8
20240221120605 28 0 0.0 0.0 0.00 0.00 0.00 90 1024.8
20240221120404 28 0 0.0 0.0 0.00 0.00 0.00 90 1024.9
20240221120204 29 0 0.0 0.0 0.00 0.00 0.00 90 1024.9
20240221120025 29 0 0.0 0.0 0.00 0.00 0.00 90 1024.8
20240221115805 29 0 0.0 0.0 0.00 0.00 0.00 91 1024.9
20240221115605 28 0 0.0 0.0 0.00 0.00 0.00 91 1024.9
20240221115405 28 0 0.0 0.0 0.00 0.00 0.00 91 1024.9
20240221115204 28 0 0.0 0.0 0.00 0.00 0.00 91 1024.9